Lander, WY

4:54 AM MDT on April 25, 2018 (GMT -0600)
Hunt

Weather History for KLND - November, 2013

Change the Weather History Date:

Tuesday, November 26, 2013

  Actual Average Record
Temperature  
Mean Temperature 32 °F 25 °F  
Max Temperature 44 °F 36 °F 63 °F (2017)
Min Temperature 20 °F 14 °F -13 °F (1918)
Degree Days  
Heating Degree Days 33 40  
Month to date heating degree days 822 850  
Since 1 July heating degree days 1767 1711  
Cooling Degree Days 0 0  
Month to date cooling degree days 0 0  
Year to date cooling degree days 743 472  
Moisture  
Dew Point 19 °F    
Average Humidity 64    
Maximum Humidity 88    
Minimum Humidity 40    
Precipitation  
Precipitation 0.00 in 0.02 in 0.75 in (1995)
Month to date precipitation 0.13 0.76  
Year to date precipitation 14.85 11.98  
Snow  
Snow 0.00 in 0.50 in - ()
Month to date snowfall 3.5 11.4  
Since 1 July snowfall 29.5 23.9  
Since 1 September snowfall 29.5 23.9  
Snow Depth -    
Sea Level Pressure  
Sea Level Pressure 30.39 in    
Wind  
Wind Speed 2 mph (WNW)    
Max Wind Speed 13 mph    
Max Gust Speed 13 mph    
Visibility 10 miles    
Events      
T = Trace of Precipitation, MM = Missing Value Source: NWS Daily Summary

Daily Weather History Graph

Daily Weather History Graph

Search for Another Location

Airport or City:

Astronomy

Nov. 26, 2013 Rise Set
Actual Time 7:20 AM MST 4:43 PM MST
Civil Twilight 6:49 AM MST 5:15 PM MST
Nautical Twilight 6:14 AM MST 5:50 PM MST
Astronomical Twilight 5:40 AM MST 6:23 PM MST
Moon 12:18 AM MST (11/26) 1:00 PM MST (11/26)
Length of Visible Light 10h 25m
Length of Day
9h 23m
Last Quarter, 40% of the Moon is Illuminated
Nov 26
Last Quarter
Dec 2
New
Dec 9
First Quarter
Dec 17
Full
Dec 25
Last Quarter

Hourly Weather History & Observations

Time (MST) Temp. Windchill Dew Point Humidity Pressure Visibility Wind Dir Wind Speed Gust Speed Precip Events Conditions
12:53 AM 24.1 °F 15.2 °F 16.0 °F 71% 30.45 in 10.0 mi WSW 8.1 mph - N/A   Clear
1:53 AM 19.9 °F 13.4 °F 16.0 °F 85% 30.45 in 10.0 mi SSE 4.6 mph - N/A   Clear
2:53 AM 27.0 °F 23.0 °F 17.1 °F 66% 30.43 in 10.0 mi SW 3.5 mph - N/A   Clear
3:53 AM 21.9 °F - 16.0 °F 78% 30.43 in 10.0 mi Calm Calm - N/A   Clear
4:53 AM 23.0 °F 18.4 °F 16.0 °F 74% 30.46 in 10.0 mi NE 3.5 mph - N/A   Clear
5:53 AM 23.0 °F - 16.0 °F 74% 30.47 in 10.0 mi Calm Calm - N/A   Clear
6:53 AM 21.9 °F 17.2 °F 16.0 °F 78% 30.48 in 10.0 mi West 3.5 mph - N/A   Clear
7:53 AM 21.0 °F - 15.1 °F 78% 30.50 in 10.0 mi Calm Calm - N/A   Clear
8:53 AM 23.0 °F - 19.0 °F 85% 30.51 in 10.0 mi Calm Calm - N/A   Clear
9:53 AM 28.0 °F - 21.0 °F 75% 30.49 in 10.0 mi Calm Calm - N/A   Clear
10:53 AM 34.0 °F 29.8 °F 21.0 °F 59% 30.44 in 10.0 mi Variable 4.6 mph - N/A   Clear
11:53 AM 37.9 °F - 19.9 °F 48% 30.39 in 10.0 mi Calm Calm - N/A   Clear
12:53 PM 41.0 °F - 21.0 °F 45% 30.36 in 10.0 mi Calm Calm - N/A   Clear
1:53 PM 42.1 °F - 21.0 °F 43% 30.35 in 10.0 mi Calm Calm - N/A   Clear
2:53 PM 44.1 °F - 21.9 °F 42% 30.29 in 10.0 mi Calm Calm - N/A   Clear
3:53 PM 42.1 °F - 23.0 °F 47% 30.31 in 10.0 mi Calm Calm - N/A   Clear
4:53 PM 37.9 °F 35.5 °F 23.0 °F 55% 30.32 in 10.0 mi Variable 3.5 mph - N/A   Clear
5:53 PM 32.0 °F 27.5 °F 23.0 °F 69% 30.34 in 10.0 mi NW 4.6 mph - N/A   Clear
6:53 PM 30.9 °F 27.5 °F 21.9 °F 69% 30.34 in 10.0 mi NNW 3.5 mph - N/A   Clear
7:53 PM 28.9 °F 23.9 °F 21.0 °F 72% 30.36 in 10.0 mi WNW 4.6 mph - N/A   Clear
8:53 PM 28.0 °F 20.8 °F 21.0 °F 75% 30.34 in 10.0 mi West 6.9 mph - N/A   Clear
9:53 PM 28.0 °F - 21.0 °F 75% 30.31 in 10.0 mi Calm Calm - N/A   Clear
10:53 PM 28.0 °F - 21.0 °F 75% 30.27 in 10.0 mi Calm Calm - N/A   Clear
11:53 PM 26.1 °F 21.9 °F 19.9 °F 78% 30.26 in 10.0 mi NW 3.5 mph - N/A   Clear